Regional Weather Roundup
Issued by NWS

Home | Current Version | Previous Version | Graphics & Text | Print | Product List | Glossary On
Versions: 1 2 3 4 5 6 7 8 9 10 11 12 13 14 15 16 17 18 19 20 21 22 23 24 25 26 27 28 29 30 31 32 33 34 35 36 37 38 39 40 41 42 43 44 45 46 47 48 49 50
812
ASUS43 KMPX 251601
RWRMN
WEATHER ROUNDUP FOR MINNESOTA
NATIONAL WEATHER SERVICE TWIN CITIES/CHANHASSEN MN
1100 AM CDT SUN SEP 25 2016


NOTE: "FAIR" INDICATES FEW OR NO CLOUDS BELOW 12,000 FEET WITH NO
SIGNIFICANT WEATHER AND/OR OBSTRUCTIONS TO VISIBILITY. N/A MEANS
CURRENT SKY AND/OR WEATHER CONDITIONS ARE NOT AVAILABLE.

MNZ060>063-068>070-251700-
   Twin Cities Metro

CITY           SKY/WX    TMP DP  RH WIND       PRES   REMARKS
TWIN CITIES    PTSUNNY   62  53  72 SW10      29.90S
ST PAUL        CLOUDY    61  53  75 SW9       29.90S
CRYSTAL        CLOUDY    62  51  67 SW18G25   29.88S
BLAINE         MOSUNNY   63  55  77 SW13G20   29.88F
LAKEVILLE      CLOUDY    61  54  77 W9        29.91F
EDEN PRAIRIE   MOSUNNY   63  53  70 SW16      29.89F
LAKEVILLE      CLOUDY    61  54  77 W9        29.91F
SOUTH ST PAUL  MOSUNNY   62  55  80 SW9       29.90S
LAKE ELMO      FAIR      61  54  77 SW10      29.90S
$$
MNZ001>005-007-008-013>017-022>024-027-028-251700-
   Northwest Minnesota

CITY           SKY/WX    TMP DP  RH WIND       PRES   REMARKS
BEMIDJI        CLOUDY    56  51  81 SW14G20   29.75S
HALLOCK        DRIZZLE   57  55  94 NW16      29.66F
ROSEAU         MOSUNNY   61  54  77 S14       29.66F
WARROAD        MOSUNNY   61  54  77 SW10      29.67F
THIEF RVR FALL CLOUDY    55  51  86 SW14      29.70S
CROOKSTON      CLOUDY    55  54  94 SW12      29.71R
FOSSTON        CLOUDY    54  50  87 S17G24    29.74F
DETROIT LAKES  CLOUDY    54  52  94 W10G16    29.80S FOG
MOORHEAD       CLOUDY    57  52  82 W22       29.80R
PARK RAPIDS    CLOUDY    57  52  83 SW14G21   29.79R
MAHNOMEN       CLOUDY    54  51  91 SW15G23   29.75F
$$
MNZ006-009>011-018-025>026-251700-
   North Central Minnesota

CITY           SKY/WX    TMP DP  RH WIND       PRES   REMARKS
BAUDETTE       PTSUNNY   61  55  81 SW15G25   29.67R
FLAG ISLAND    CLOUDY    63  61  94 S6        29.62F
INTL FALLS     CLOUDY    64  63  96 VRB6      29.70F
WASKISH        MOSUNNY   61  55  82 SW14G20   29.71S
BIG FORK       CLOUDY    66  63  88 S14G20    29.72S
GRAND RAPIDS   PTSUNNY   65  54  67 S13G21    29.77S
ORR            CLOUDY    61  57  88 CALM      29.71F
COOK           CLOUDY    63  61  94 SE5       29.75F
WALKER         CLOUDY    56  51  81 SW13G24   29.77R
$$
MNZ012-019>021-037-251700-
   Northeast Minnesota

CITY           SKY/WX    TMP DP  RH WIND       PRES   REMARKS
DULUTH         CLOUDY    65  63  93 SW12      29.81S
ELY            RAIN      61  59  94 S8        29.78F
HIBBING        PTSUNNY   63  61  93 S10       29.77S
EVELETH        CLOUDY    63  61  93 SE6       29.79S
DULUTH HARBOR  DRIZZLE   63  61  94 CALM      29.81R
TWO HARBORS    LGT RAIN  64  59  82 E3        29.78F
SILVER BAY     LGT RAIN  61  61 100 CALM      29.80F
GRAND MARAIS     N/A     60  60 100 NE10      29.85F
G MARAIS ARPRT RAIN      55  54  94 E9        29.88F VSB 1
$$
MNZ029>031-032-039>041-046>048-054>057-064-251700-
   West Central Minnesota

CITY           SKY/WX    TMP DP  RH WIND       PRES   REMARKS
FERGUS FALLS   CLOUDY    57  54  88 W16G23    29.84R
MORRIS         CLOUDY    61  54  77 W14       29.86R
ALEXANDRIA     CLOUDY    58  53  84 W13       29.86R
ELBOW LAKE     CLOUDY    59  52  75 NW18G25   29.84R
GLENWOOD       MOSUNNY   57  54  88 SW15      29.86S
BENSON         PTSUNNY   63  52  67 W18G28    29.88R
MADISON          N/A     63  54  72 W24G30    29.92R
WILLMAR        PTSUNNY   61  54  77 W16G26    29.90S
$$
MNZ033>034-036-042>043-049>051-058-059-251700-
   Central Minnesota

CITY           SKY/WX    TMP DP  RH WIND       PRES   REMARKS
ST CLOUD       CLOUDY    58  52  80 SW17      29.88R
SAUK CENTRE    CLOUDY    57  52  83 SW12G18   29.85F
PAYNESVILLE    CLOUDY    58  55  88 SW12G17   29.89S
AITKIN         SUNNY     63  52  67 SW16G24   29.80R
PINE RIVER     CLOUDY    57  52  82 SW9       29.84R
BRAINERD       CLOUDY    57  51  80 SW21      29.83R
STAPLES        CLOUDY    57  52  82 SW9       29.82S
LONG PRAIRIE   CLOUDY    55  52  88 S13       29.85S
LITTLE FALLS   CLOUDY    55  50  82 SW7       29.85F
LITCHFIELD     CLOUDY    59  54  82 W8        29.91R
BUFFALO        PTSUNNY   61  51  70 SW9       29.90S
MAPLE LAKE     CLOUDY    61  54  76 SW14G20   29.90S
HUTCHINSON     CLOUDY    60  53  77 W16       29.93R
$$
MNZ037-044-045-052-053-251700-
   East Central Minnesota

CITY           SKY/WX    TMP DP  RH WIND       PRES   REMARKS
PRINCETON      MOSUNNY   64  55  72 SW13      29.87R
MORA           MOSUNNY   61  52  72 SW13G21   29.85F
CAMBRIDGE      MOSUNNY   63  52  67 SW12      29.85S
MOOSE LAKE     CLOUDY    63  61  94 S10       29.79S
HINCKLEY       FAIR      64  59  82 S9        29.83S
CLOQUET        CLOUDY    64  63  94 S8        29.80S
MCGREGOR       MOSUNNY   64  55  72 S15G24    29.80R
$$
MNZ071>073-080-081-089-090-097-098-251700-
   Southwest Minnesota

CITY           SKY/WX    TMP DP  RH WIND       PRES   REMARKS
MONTEVIDEO     CLOUDY    63  54  72 NW14G23   29.92R
GRANITE FALLS  CLOUDY    63  53  72 W15G29    29.93S
CANBY          PTSUNNY   61  53  74 NW22G28   29.95R
MARSHALL       CLOUDY    60  51  72 W24G31    29.94R
REDWOOD FALLS  CLOUDY    61  50  67 W18G26    29.92R
OLIVIA         CLOUDY    59  52  77 W10G25    29.91R
PIPESTONE      CLOUDY    57  50  77 NW18G25   29.99R
WINDOM         MOSUNNY   63  52  67 W21G29    29.97R
WORTHINGTON    CLOUDY    59  50  72 W24G30    30.00R
JACKSON        MOSUNNY   63  46  55 W21G26    29.99R
TRACY          CLOUDY    61  53  74 W15G23    29.96R
$$
MNZ065>067-074>077-082>085-091>093-251700-
   South Central Minnesota

CITY           SKY/WX    TMP DP  RH WIND       PRES   REMARKS
MANKATO        MOSUNNY   62  52  69 W17       29.94F
ST JAMES       MOSUNNY   63  52  67 SW18G24   29.96R
FAIRMONT       MOSUNNY   63  51  65 W17G23    29.98R
GLENCOE        PTSUNNY   62  55  76 SW8G23    29.91S
FARIBAULT      CLOUDY    63  55  77 W12       29.93F
OWATONNA       PTSUNNY   63  54  72 W13       29.94F
WASECA         MOSUNNY   63  52  67 W13G18    29.96F
ALBERT LEA     CLOUDY    61  54  77 W6        29.97S
$$
MNZ078>079-086>088-094>096-251700-
   Southeast Minnesota

CITY           SKY/WX    TMP DP  RH WIND       PRES   REMARKS
ROCHESTER      CLOUDY    64  59  83 W12       29.95S
RED WING       CLOUDY    64  61  88 W6        29.89F
STANTON        CLOUDY    62  55  76 W5        29.91F
DODGE CENTER   CLOUDY    61  54  77 W15       29.95S
WINONA         CLOUDY    72  66  83 SW5       29.91F
AUSTIN         MOSUNNY   63  54  72 W13       29.96R
PRESTON        CLOUDY    66  61  82 W12       29.95R
$$
ABBREVIATIONS USED IN REMARKS
   TC - TEMPERATURES IN CELSIUS
  WCI - WIND CHILL INDEX
   HX - HEAT INDEX
  VSB - VISIBILITY
$$




USA.gov is the U.S. government's official web portal to all federal, state and local government web resources and services.